Weather History for KEGV - April, 2013

Change the Weather History Date:

Wednesday, April 24, 2013

  Actual Average Record
Temperature  
Mean Temperature 30 °F -  
Max Temperature 42 °F 56 °F 66 °F (2003)
Min Temperature 17 °F 33 °F 17 °F (1999)
Degree Days  
Heating Degree Days 36    
Moisture  
Dew Point 21 °F    
Average Humidity 69    
Maximum Humidity 100    
Minimum Humidity 39    
Precipitation  
Precipitation 0.00 in - - ()
Sea Level Pressure  
Sea Level Pressure 29.90 in    
Wind  
Wind Speed 4 mph (West)    
Max Wind Speed 18 mph    
Max Gust Speed 24 mph    
Visibility 10 miles    
Events Snow    
Averages and records for this station are not official NWS values.
T = Trace of Precipitation, MM = Missing Value Source: NWS Daily Summary

Daily Weather History Graph

Daily Weather History Graph

Search for Another Location

Airport or City:

Trip Planner

Search our weather history database for the weather conditions in past years. The results will help you decide how hot, cold, wet, or windy it might be!

Date:

Astronomy

Apr. 24, 2013 Rise Set
Actual Time 5:54 AM CDT 7:56 PM CDT
Civil Twilight 5:22 AM CDT 8:28 PM CDT
Nautical Twilight 4:43 AM CDT 9:08 PM CDT
Astronomical Twilight 3:59 AM CDT 9:52 PM CDT
Moon 6:57 PM CDT (4/24) 5:02 AM CDT (4/24)
Length of Visible Light 15h 05m
Length of Day
14h 01m
Waxing Gibbous, 98% of the Moon is Illuminated
Apr 24
Waxing Gibbous
Apr 25
Full
May 2
Last Quarter
May 9
New
May 17
First Quarter

Hourly Weather History & Observations

Time (CDT) Temp. Windchill Dew Point Humidity Pressure Visibility Wind Dir Wind Speed Gust Speed Precip Events Conditions
12:15 AM 23.0 °F - 23.0 °F 100% 29.96 in 10.0 mi Calm Calm - N/A   Clear
12:35 AM 21.2 °F - 21.2 °F 100% 29.95 in 10.0 mi Calm Calm - N/A   Clear
12:55 AM 21.2 °F - 21.2 °F 100% 29.95 in 10.0 mi Calm Calm - N/A   Clear
1:15 AM 21.2 °F - 21.2 °F 100% 29.94 in 10.0 mi Calm Calm - N/A   Clear
1:35 AM 19.4 °F - 19.4 °F 100% 29.94 in 10.0 mi Calm Calm - N/A   Clear
1:55 AM 21.2 °F - 21.2 °F 100% 29.94 in 5.0 mi Calm Calm - N/A   Clear
2:15 AM 21.2 °F - 21.2 °F 100% 29.94 in 10.0 mi Calm Calm - N/A   Clear
2:35 AM 19.4 °F - 19.4 °F 100% 29.93 in 10.0 mi Calm Calm - N/A   Clear
2:55 AM 19.4 °F - 19.4 °F 100% 29.93 in 10.0 mi Calm Calm - N/A   Clear
3:15 AM 19.4 °F - 19.4 °F 100% 29.93 in 10.0 mi Calm Calm - N/A   Clear
3:35 AM 19.4 °F - 19.4 °F 100% 29.93 in 10.0 mi Calm Calm - N/A   Clear
3:55 AM 19.4 °F - 17.6 °F 93% 29.94 in 10.0 mi Calm Calm - N/A   Clear
4:15 AM 17.6 °F - 17.6 °F 100% 29.94 in 10.0 mi Calm Calm - N/A   Clear
4:35 AM 17.6 °F - 17.6 °F 100% 29.93 in 10.0 mi Calm Calm - N/A   Clear
4:55 AM 17.6 °F - 17.6 °F 100% 29.93 in 10.0 mi Calm Calm - N/A   Clear
5:15 AM 17.6 °F - 17.6 °F 100% 29.93 in 10.0 mi Calm Calm - N/A   Clear
5:35 AM 17.6 °F - 17.6 °F 100% 29.93 in 10.0 mi Calm Calm - N/A   Clear
5:55 AM 17.6 °F - 17.6 °F 100% 29.93 in 7.0 mi Calm Calm - N/A   Clear
6:15 AM 17.6 °F - 17.6 °F 100% 29.93 in 10.0 mi Calm Calm - N/A   Clear
6:35 AM 17.6 °F - 17.6 °F 100% 29.94 in 7.0 mi Calm Calm - N/A   Clear
6:55 AM 19.4 °F - 19.4 °F 100% 29.94 in 10.0 mi Calm Calm - N/A   Clear
7:15 AM 21.2 °F - 21.2 °F 100% 29.94 in 10.0 mi Calm Calm - N/A   Clear
7:35 AM 23.0 °F - 23.0 °F 100% 29.94 in 10.0 mi Calm Calm - N/A   Clear
7:55 AM 26.6 °F 22.6 °F 24.8 °F 93% 29.94 in 10.0 mi WNW 3.5 mph - N/A   Clear
8:15 AM 28.4 °F 23.3 °F 21.2 °F 74% 29.94 in 10.0 mi WNW 4.6 mph - N/A   Clear
8:35 AM 30.2 °F 24.3 °F 21.2 °F 69% 29.94 in 10.0 mi WNW 5.8 mph - N/A   Clear
8:55 AM 32.0 °F 25.6 °F 21.2 °F 64% 29.94 in 10.0 mi WNW 6.9 mph - N/A   Clear
9:15 AM 32.0 °F 26.4 °F 21.2 °F 64% 29.93 in 10.0 mi West 5.8 mph - N/A   Clear
9:35 AM 33.8 °F 26.4 °F 19.4 °F 56% 29.93 in 10.0 mi WNW 9.2 mph - N/A   Clear
9:55 AM 33.8 °F 27.0 °F 19.4 °F 56% 29.93 in 10.0 mi West 8.1 mph - N/A   Clear
10:15 AM 35.6 °F 28.0 °F 17.6 °F 48% 29.92 in 10.0 mi West 10.4 mph - N/A   Clear
10:35 AM 35.6 °F 31.7 °F 17.6 °F 48% 29.92 in 10.0 mi West 4.6 mph - N/A   Clear
10:55 AM 35.6 °F 27.1 °F 17.6 °F 48% 29.92 in 10.0 mi WSW 12.7 mph - N/A   Clear
11:15 AM 35.6 °F 27.5 °F 15.8 °F 44% 29.92 in 10.0 mi West 11.5 mph - N/A   Clear
11:35 AM 37.4 °F 31.4 °F 17.6 °F 45% 29.92 in 10.0 mi West 8.1 mph - N/A   Clear
11:55 AM 37.4 °F 29.8 °F 17.6 °F 45% 29.91 in 10.0 mi WSW 11.5 mph - N/A   Clear
12:15 PM 37.4 °F 29.8 °F 19.4 °F 48% 29.90 in 10.0 mi WSW 11.5 mph 16.1 mph N/A   Clear
12:35 PM 39.2 °F 30.8 °F 15.8 °F 39% 29.90 in 10.0 mi West 15.0 mph 19.6 mph N/A   Clear
12:55 PM 39.2 °F 32.5 °F 17.6 °F 42% 29.89 in 10.0 mi West 10.4 mph 19.6 mph N/A   Clear
1:15 PM 39.2 °F 30.8 °F 17.6 °F 42% 29.89 in 10.0 mi West 15.0 mph 19.6 mph N/A   Clear
1:35 PM 39.2 °F 31.2 °F 17.6 °F 42% 29.88 in 10.0 mi West 13.8 mph 23.0 mph N/A   Scattered Clouds
1:55 PM 41.0 °F 33.5 °F 19.4 °F 42% 29.88 in 10.0 mi WSW 13.8 mph 21.9 mph N/A   Scattered Clouds
2:15 PM 41.0 °F 33.9 °F 19.4 °F 42% 29.88 in 10.0 mi West 12.7 mph 17.3 mph N/A   Scattered Clouds
2:35 PM 41.0 °F 33.9 °F 19.4 °F 42% 29.88 in 10.0 mi West 12.7 mph 24.2 mph N/A   Scattered Clouds
2:55 PM 41.0 °F 36.4 °F 19.4 °F 42% 29.87 in 10.0 mi WSW 6.9 mph 18.4 mph N/A   Scattered Clouds
3:15 PM 42.8 °F 35.8 °F 19.4 °F 39% 29.87 in 10.0 mi WNW 13.8 mph 19.6 mph N/A   Mostly Cloudy
3:35 PM 42.8 °F 35.4 °F 19.4 °F 39% 29.86 in 10.0 mi West 15.0 mph 21.9 mph N/A   Scattered Clouds
3:55 PM 42.8 °F 35.8 °F 19.4 °F 39% 29.86 in 10.0 mi West 13.8 mph 21.9 mph N/A   Mostly Cloudy
4:15 PM 42.8 °F 36.2 °F 21.2 °F 42% 29.86 in 10.0 mi WSW 12.7 mph 21.9 mph N/A   Mostly Cloudy
4:35 PM 41.0 °F 32.2 °F 23.0 °F 49% 29.86 in 10.0 mi WSW 18.4 mph 23.0 mph N/A   Overcast
4:55 PM 42.8 °F 35.4 °F 23.0 °F 46% 29.86 in 10.0 mi WSW 15.0 mph 23.0 mph N/A   Mostly Cloudy
5:15 PM 42.8 °F 34.8 °F 21.2 °F 42% 29.86 in 10.0 mi WSW 17.3 mph 21.9 mph N/A   Mostly Cloudy
5:35 PM 41.0 °F 32.5 °F 23.0 °F 49% 29.86 in 10.0 mi WSW 17.3 mph 23.0 mph N/A   Overcast
5:55 PM 41.0 °F 33.5 °F 21.2 °F 45% 29.86 in 10.0 mi WSW 13.8 mph 24.2 mph N/A   Overcast
6:15 PM 41.0 °F 34.3 °F 23.0 °F 49% 29.85 in 10.0 mi WSW 11.5 mph 23.0 mph N/A   Mostly Cloudy
6:35 PM 41.0 °F 34.3 °F 23.0 °F 49% 29.85 in 10.0 mi WSW 11.5 mph 17.3 mph N/A   Scattered Clouds
6:55 PM 41.0 °F 33.5 °F 21.2 °F 45% 29.85 in 10.0 mi WSW 13.8 mph 19.6 mph N/A   Mostly Cloudy
7:15 PM 41.0 °F 35.2 °F 23.0 °F 49% 29.85 in 10.0 mi SW 9.2 mph 17.3 mph N/A   Overcast
7:55 PM 39.2 °F 34.2 °F 23.0 °F 52% 29.85 in 10.0 mi SW 6.9 mph - N/A   Mostly Cloudy
8:15 PM 41.0 °F 37.1 °F 19.4 °F 42% 29.85 in 10.0 mi SW 5.8 mph - N/A   Scattered Clouds
8:35 PM 39.2 °F 34.2 °F 19.4 °F 45% 29.85 in 10.0 mi SW 6.9 mph - N/A   Scattered Clouds
8:55 PM 39.2 °F 35.0 °F 19.4 °F 45% 29.85 in 10.0 mi SW 5.8 mph - N/A   Scattered Clouds
10:35 PM 35.6 °F 27.1 °F 24.8 °F 65% 29.86 in 10.0 mi NW 12.7 mph 16.1 mph N/A   Mostly Cloudy
10:55 PM 35.6 °F 29.2 °F 28.4 °F 75% 29.86 in 10.0 mi WNW 8.1 mph - N/A   Overcast
11:15 PM 35.6 °F 29.2 °F 30.2 °F 81% 29.87 in 7.0 mi West 8.1 mph - N/A Snow Light Snow
11:35 PM 32.0 °F 26.4 °F 32.0 °F 100% 29.86 in 1.8 mi WNW 5.8 mph - N/A Snow Light Snow
11:55 PM 32.0 °F 28.7 °F 32.0 °F 100% 29.86 in 0.8 mi WNW 3.5 mph - N/A Snow Snow